Regional Weather Roundup
Issued by NWS

Home | Current Version | Previous Version | Text Only | Print | Product List | Glossary On
Versions: 1 2 3 4 5 6 7 8 9 10 11 12 13 14 15 16 17 18 19 20 21 22 23 24 25 26 27 28 29 30 31 32 33 34 35 36 37 38 39 40 41 42 43 44 45 46 47 48 49 50
000
ASUS43 KMPX 110910
RWRMN
WEATHER ROUNDUP FOR MINNESOTA
NATIONAL WEATHER SERVICE TWIN CITIES/CHANHASSEN MN
400 AM CDT FRI JUL 11 2014


NOTE: "FAIR" INDICATES FEW OR NO CLOUDS BELOW 12,000 FEET WITH NO
SIGNIFICANT WEATHER AND/OR OBSTRUCTIONS TO VISIBILITY. N/A MEANS
CURRENT SKY AND/OR WEATHER CONDITIONS ARE NOT AVAILABLE.

MNZ060>063-068>070-111000-
   Twin Cities Metro

CITY           SKY/WX    TMP DP  RH WIND       PRES   REMARKS
TWIN CITIES    CLOUDY    73  59  61 S14G23    29.97F
ST PAUL        CLOUDY    71  59  65 S16G22    29.98S
CRYSTAL        CLOUDY    74  59  59 S16G25    29.94F
BLAINE         CLOUDY    73  61  64 S14G24    29.96F
LAKEVILLE      CLOUDY    68  61  77 S10G16    29.99S
EDEN PRAIRIE   CLOUDY    72  59  63 S14G23    29.96F
SOUTH ST PAUL  CLOUDY    72  58  62 S13G18    29.98S
LAKE ELMO      CLOUDY    70  61  73 S14       30.00S
$$
MNZ001>005-007-008-013>017-022>024-027-028-111000-
   Northwest Minnesota

CITY           SKY/WX    TMP DP  RH WIND       PRES   REMARKS
BEMIDJI        CLOUDY    66  65  96 SE7       29.86S
HALLOCK        MOCLDY    66  63  88 S5        29.79R
ROSEAU         CLEAR     64  59  82 S6        29.81S
WARROAD        PTCLDY    64  61  88 S7        29.82F
THIEF RVR FALL   N/A    N/A N/A N/A MISG        N/A
CROOKSTON      CLEAR     66  64  94 S5        29.79F
FOSSTON        MOCLDY    66  64  94 SE6       29.83S
DETROIT LAKES  MOCLDY    68  66  94 SE6       29.85F
MOORHEAD       PTCLDY    72  72 100 SE7       29.80F
PARK RAPIDS    LGT RAIN  67  66  97 S9        29.87R
$$
MNZ006-009>011-018-025>026-111000-
   North Central Minnesota

CITY           SKY/WX    TMP DP  RH WIND       PRES   REMARKS
BAUDETTE       CLOUDY    65  62  90 SE5       29.85F
FLAG ISLAND    PTCLDY    68  64  88 S7        29.80F
INTL FALLS     PTCLDY    63  61  93 SE6       29.86F
WASKISH        CLOUDY    66  64  94 SE5       29.84F
BIG FORK       MOCLDY    66  64  94 S6        29.89F
LONGVILLE      MOCLDY    66  64  94 S12G21    29.88F
GRAND RAPIDS   CLOUDY    64  63  94 S14G25    29.89F
CRANE LAKE     LGT RAIN  63  61  94 CALM      29.92S
ORR            RAIN      64  61  88 S7        29.89S
COOK           RAIN      64  63  94 S3        29.92F
$$
MNZ012-019>021-037-111000-
   Northeast Minnesota

CITY           SKY/WX    TMP DP  RH WIND       PRES   REMARKS
DULUTH         LGT RAIN  63  59  87 S8        29.97F
ELY            LGT RAIN  64  61  88 S7        29.95S
HIBBING        CLOUDY    65  62  90 SE7       29.93F
EVELETH        CLOUDY    63  61  94 S5        29.95S
DULUTH HARBOR  DRIZZLE   54  50  87 CALM      29.98S
TWO HARBORS    CLOUDY    57  54  88 CALM      29.96F
SILVER BAY     CLOUDY    55  55 100 CALM      29.96S
GRAND MARAIS     N/A     48  46  93 E7        29.98S
G MARAIS ARPRT MOCLDY    55  50  82 CALM      30.01F
$$
MNZ029>031-032-039>041-046>048-054>057-064-111000-
   West Central Minnesota

CITY           SKY/WX    TMP DP  RH WIND       PRES   REMARKS
FERGUS FALLS   MOCLDY    72  66  83 SE5       29.82S
WHEATON        MOCLDY    72  64  78 S7        29.82R
MORRIS         PTCLDY    72  66  83 S12       29.82R
ALEXANDRIA     LGT RAIN  72  65  78 S20G29    29.85F
ELBOW LAKE     CLOUDY    72  66  83 S15       29.82
WADENA         CLOUDY    64  63  94 SE8       29.87
GLENWOOD       PTCLDY    72  64  78 S21G26    29.86S
APPLETON       PTCLDY    75  64  69 S12G18    29.83S
BENSON         PTCLDY    72  66  83 SW14      29.85S
ORTONVILLE     PTCLDY    73  64  73 S10       29.82R
MADISON        CLEAR     75  66  73 SW16      29.82F
WILLMAR        LGT RAIN  70  63  78 S6        29.90S
$$
MNZ033>034-036-042>043-049>051-058-059-111000-
   Central Minnesota

CITY           SKY/WX    TMP DP  RH WIND       PRES   REMARKS
ST CLOUD       CLOUDY    73  59  61 S22G30    29.88F
SAUK CENTRE    PTSUNNY   71  63  76 S18G26    29.84F
PAYNESVILLE    HVY RAIN  69  59  71 SE17G24   29.90S
AITKIN         CLOUDY    66  61  82 CALM      29.92F
PINE RIVER     RAIN      64  64 100 SE7       29.92S
BRAINERD       RAIN      70  64  81 S10       29.91S
STAPLES        TSTM      64  64 100 SE9G17    29.90R
LONG PRAIRIE   CLOUDY    68  63  83 S8G22     29.86S
LITTLE FALLS   LGT RAIN  64  63  94 N3        29.88F
LITCHFIELD     CLOUDY    73  61  64 S8G17     29.92S
BUFFALO        MOCLDY    71  58  62 S13G22    29.94F
MAPLE LAKE     MOCLDY    73  62  68 S16G26    29.93F
$$
MNZ037-044-045-052-053-111000-
   East Central Minnesota

CITY           SKY/WX    TMP DP  RH WIND       PRES   REMARKS
PRINCETON      CLOUDY    73  61  64 S15G24    29.92F
MORA           LGT RAIN  64  59  82 SE7       29.94F
CAMBRIDGE      CLOUDY    73  59  60 S14G20    29.93S
RUSH CITY      CLOUDY    67  61  80 SE6       29.95F
MOOSE LAKE     RAIN      64  63  94 SE5       29.93F
HINCKLEY       RAIN      66  63  88 SE8       29.95F
CLOQUET        RAIN      59  57  94 S5        29.97S
MCGREGOR       CLOUDY    64  63  94 SE7       29.95F THUNDER
$$
MNZ071>073-080-081-089-090-097-098-111000-
   Southwest Minnesota

CITY           SKY/WX    TMP DP  RH WIND       PRES   REMARKS
MONTEVIDEO     MOCLDY    72  66  83 SW16G23   29.86F
GRANITE FALLS  MOCLDY    71  65  80 S17G23    29.89F
CANBY          PTCLDY    73  66  76 SW15G26   29.84F
MARSHALL       PTCLDY    72  64  78 SW25G33   29.86F
REDWOOD FALLS  CLOUDY    70  64  81 S24       29.91S
OLIVIA         LGT RAIN  70  64  83 S14G22    29.91R
PIPESTONE      CLOUDY    70  66  88 S24G32    29.90F
WINDOM         LGT RAIN  68  63  83 S14G21    29.98F
WORTHINGTON    CLOUDY    66  64  94 S14G21    29.99F
JACKSON        LGT RAIN  66  61  82 S13G21    30.02S
TRACY          MOCLDY    70  66  88 S18G28    29.90F
SLAYTON        HVY RAIN  68  66  94 S23G29    29.92F
$$
MNZ065>067-074>077-082>085-091>093-111000-
   South Central Minnesota

CITY           SKY/WX    TMP DP  RH WIND       PRES   REMARKS
MANKATO        MOCLDY    70  57  64 S14G21    30.00S
NEW ULM        MOCLDY    72  61  68 S15G24    29.97R
ST JAMES       CLOUDY    70  61  73 S14G20    29.99S
FAIRMONT       CLOUDY    70  57  64 S14       30.02S
GLENCOE        PTCLDY    72  58  62 S12G21    29.95S
FARIBAULT      CLOUDY    72  57  60 S9        30.02R
OWATONNA       CLOUDY    68  59  73 S12       30.02S
WASECA         CLOUDY    68  54  60 S18G24    30.04S
ALBERT LEA     CLOUDY    70  57  64 S14G21    30.05R
$$
MNZ078>079-086>088-094>096-111000-
   Southeast Minnesota

CITY           SKY/WX    TMP DP  RH WIND       PRES   REMARKS
ROCHESTER      LGT RAIN  66  58  75 S14       30.07F
RED WING       CLOUDY    72  57  60 S8        30.01S
STANTON        CLOUDY    70  59  69 S9        30.00S
DODGE CENTER   CLOUDY    66  59  77 S16       30.05S
WINONA         CLOUDY    70  59  68 S5        30.06S
AUSTIN         CLOUDY    68  55  64 S13       30.06S
PRESTON        CLOUDY    67  58  73 S14       30.07F
$$
ABBREVIATIONS USED IN REMARKS
   TC - TEMPERATURES IN CELSIUS
  WCI - WIND CHILL INDEX
   HX - HEAT INDEX
  VSB - VISIBILITY
$$


USA.gov is the U.S. government's official web portal to all federal, state and local government web resources and services.